Starlink 1704

operational
NORAD ID: 47625 Int'l Des: 2021-012 Owner: SPXS Country: US Constellation: starlink
LEOCIRCULARSTARLINK_TYPE

Über Starlink 1704

Beschreibung wird geladen...

Live-Position

3D-Globus wird geladen...

Nächste Überflüge

Höhenverlauf

Altitude vs Time

uPlot chart will show altitude changes over time

Zweizeiliger Elementsatz

1 47625U 21012F 25302.28689777 .00003064 00000-0 22440-3 0 9994
2 47625 53.0543 301.4986 0001279 89.6013 270.5123 15.06413705260171
Epoch: 29. Okt. 2025 • Age: 11 hours

Aktueller Status

Höhe 551.6 km
Geschwindigkeit 7.59 km/s
Subsatellitenpunkt -15.28°S, 19.88°W
Startdatum 16. Feb. 2021
Alter 4.6 years
Typ internet

Technische Details

Klassifizierung Payload
Masse 260.00 kg
Trockenmasse 248.00 kg
Gesamtmasse 260.00 kg
Länge 0.20 m
Durchmesser 2.80 m
Spannweite 9.00 m
Form Box + pan
Hersteller SPXS
Bus-Typ Starlink
Phasenstatus In Orbit
Besitzer/Staat SPXS/US

Große Konstellationen

Loading constellations...